Gallup, NM

4:40 PM MDT on June 25, 2017 (GMT -0600)
Gallup Municipal

Weather History for KGUP - June, 2013

Change the Weather History Date:

Saturday, June 22, 2013

  Actual Average Record
Temperature  
Mean Temperature 64 °F -  
Max Temperature 87 °F 84 °F 98 °F (2017)
Min Temperature 44 °F 44 °F 33 °F (1993)
Degree Days  
Heating Degree Days 1    
Growing Degree Days 14 (Base 50)    
Moisture  
Dew Point 13 °F    
Average Humidity 13    
Maximum Humidity 26    
Minimum Humidity 6    
Precipitation  
Precipitation 0.00 in - - ()
Sea Level Pressure  
Sea Level Pressure 29.65 in    
Wind  
Wind Speed 7 mph (WSW)    
Max Wind Speed 20 mph    
Max Gust Speed 45 mph    
Visibility 10 miles    
Events      
Averages and records for this station are not official NWS values.
T = Trace of Precipitation, MM = Missing Value Source: NWS Daily Summary

Daily Weather History Graph

Daily Weather History Graph

Search for Another Location

Airport or City:

Trip Planner

Search our weather history database for the weather conditions in past years. The results will help you decide how hot, cold, wet, or windy it might be!

Date:

Astronomy

Jun. 22, 2013 Rise Set
Actual Time 6:00 AM MDT 8:34 PM MDT
Civil Twilight 5:30 AM MDT 9:04 PM MDT
Nautical Twilight 4:53 AM MDT 9:41 PM MDT
Astronomical Twilight 4:11 AM MDT 10:22 PM MDT
Moon 7:54 PM MDT (6/22) 5:14 AM MDT (6/22)
Length of Visible Light 15h 33m
Length of Day
14h 33m
Waxing Gibbous, 99% of the Moon is Illuminated
Jun 22
Waxing Gibbous
Jun 23
Full
Jun 29
Last Quarter
Jul 8
New
Jul 15
First Quarter

Hourly Weather History & Observations

Time (MDT) Temp. Windchill Dew Point Humidity Pressure Visibility Wind Dir Wind Speed Gust Speed Precip Events Conditions
12:53 AM 57.0 °F - 10.9 °F 16% 29.65 in 10.0 mi WSW 4.6 mph - N/A   Clear
1:53 AM 52.0 °F - 12.9 °F 21% 29.66 in 10.0 mi Calm Calm - N/A   Clear
2:53 AM 50.0 °F - 10.0 °F 20% 29.65 in 10.0 mi ENE 5.8 mph - N/A   Clear
3:53 AM 51.1 °F - 12.9 °F 22% 29.66 in 10.0 mi NE 3.5 mph - N/A   Clear
4:53 AM 46.9 °F - 10.9 °F 23% 29.70 in 10.0 mi East 3.5 mph - N/A   Clear
5:53 AM 48.9 °F - 14.0 °F 25% 29.68 in 10.0 mi Calm Calm - N/A   Clear
6:53 AM 44.1 °F 41.5 °F 10.9 °F 26% 29.76 in 10.0 mi NE 4.6 mph - N/A   Clear
7:53 AM 57.9 °F - 16.0 °F 19% 29.69 in 10.0 mi NE 4.6 mph - N/A   Clear
8:53 AM 69.1 °F - 18.0 °F 14% 29.65 in 10.0 mi Calm Calm - N/A   Clear
9:53 AM 75.0 °F - 19.9 °F 13% 29.65 in 10.0 mi WSW 8.1 mph - N/A   Clear
10:53 AM 77.0 °F - 17.1 °F 10% 29.65 in 10.0 mi WSW 12.7 mph 26.5 mph N/A   Clear
11:53 AM 81.0 °F - 16.0 °F 9% 29.62 in 10.0 mi SW 17.3 mph 28.8 mph N/A   Clear
12:53 PM 81.0 °F - 12.9 °F 8% 29.68 in 10.0 mi WSW 19.6 mph 25.3 mph N/A   Clear
1:53 PM 82.9 °F - 10.0 °F 6% 29.67 in 10.0 mi WSW 18.4 mph 29.9 mph N/A   Clear
2:53 PM 84.9 °F - 12.9 °F 7% 29.65 in 10.0 mi WSW 16.1 mph 32.2 mph N/A   Clear
3:53 PM 84.9 °F - 10.9 °F 6% 29.62 in 10.0 mi SSW 15.0 mph 44.9 mph N/A   Clear
4:53 PM 84.9 °F - 10.9 °F 6% 29.63 in 10.0 mi WSW 16.1 mph 29.9 mph N/A   Clear
5:53 PM 84.9 °F - 12.0 °F 7% 29.60 in 10.0 mi WSW 15.0 mph 26.5 mph N/A   Clear
6:53 PM 82.9 °F - 12.0 °F 7% 29.63 in 10.0 mi SW 17.3 mph 23.0 mph N/A   Clear
7:53 PM 80.1 °F - 12.0 °F 8% 29.58 in 10.0 mi West 18.4 mph 23.0 mph N/A   Clear
8:53 PM 72.0 °F - 12.0 °F 10% 29.57 in 10.0 mi WSW 6.9 mph - N/A   Clear
9:53 PM 66.9 °F - 12.0 °F 12% 29.60 in 10.0 mi SW 5.8 mph - N/A   Clear
10:53 PM 61.0 °F - 10.0 °F 13% 29.64 in 10.0 mi Calm Calm - N/A   Clear
11:53 PM 59.0 °F - 10.0 °F 14% 29.63 in 10.0 mi WNW 3.5 mph - N/A   Clear